User: anonymous
Location: Columbia
(38.9520°N, 92.3340°W)
Time: 04:36:22
(UTC-05:00)
Language:

SL-08 RB Rocket - Orbit

View from above orbital plane
View from above orbital plane
View from above satellite
View from above satellite

Ground track
Ground track

The orbit data is extracted from the following two-line orbital elements,

1 26387U 00033D   14110.25602032  .00001170  00000-0  21544-3 0  4802
2 26387 098.1101 178.5544 0027467 039.2561 001.5287 14.67213455738597
Epoch (UTC): 20 April 2014 06:08:40
Eccentricity: 0.0027467
inclination: 98.1101°
perigee height: 650 km
apogee height: 689 km
right ascension of ascending node: 178.5544°
argument of perigee: 39.2561°
revolutions per day: 14.67213455
mean anomaly at epoch: 1.5287°
orbit number at epoch: 73859

The dashed part of the orbit path shows where the satellite is in the earth's shadow,  

DLR